sat.trackr.live / text

‹ back to catalog

STARLINK-36762

NORAD 67868 · 2026-034U

PAYLOAD ACTIVE UNKNOWN

§ Identity

Operator
Country
US
Launch date
2026-02-20
Launch site
AFETR
Launch vehicle
Mass (kg)
RCS (m²)

Purposes: comms

External: N2YO · Heavens-Above · Gunter

§ Orbital elements

Epoch: 2026-05-24T21:29:34.799424Z

Period
94.10 min
Inclination
53.1580°
Eccentricity
0.0001123
Mean motion
15.30212351 rev/d
Perigee alt
474.4 km
Apogee alt
475.9 km
Semi-major
6,853.3 km
B*
4.8451e-4
RAAN
210.2370°
Arg perigee
74.3866°
Mean anomaly
285.7258°
Rev number
1,570

§ Raw data

STARLINK-367621 67868U 26034U   26144.89554166  .00014023  00000+0  48451-3 0  99952 67868  53.1580 210.2370 0001123  74.3866 285.7258 15.30212351 15708

JSON: /api/v1/satellites/67868 · /tle

For live sub-satellite position, see the globe view (requires WebGL).

§ Visibility from observer

Set your observer location to see the next 7 days of passes ≥ 10°. The values pass through the URL so the page stays shareable.

No JS? Fill the form by hand. The geolocation button needs JavaScript.